User: anonymous   Login
Location: M.A.R.S.Observatory
(35.4031°N, 81.5481°W)
Time: 02:58:48
(UTC-05:00)
Language:

SL-8 R/B - Orbit

View from above orbital plane
View from above orbital plane
View from above satellite
View from above satellite

Ground track
Ground track

The orbit data is extracted from the following two-line orbital elements,

1 33066U 08031G   17018.71521109 -.00000054  00000-0  23771-4 0  9997
2 33066  48.4444  89.5312 0008123 207.8675 297.2232 14.69507492460773
Epoch (UTC): 18 January 2017 17:09:54
Eccentricity: 0.0008123
inclination: 48.4444°
perigee height: 657 km
apogee height: 668 km
right ascension of ascending node: 89.5312°
argument of perigee: 207.8675°
revolutions per day: 14.69507492
mean anomaly at epoch: 297.2232°
orbit number at epoch: 46077

The dashed part of the orbit path shows where the satellite is in the earth's shadow,  

DLR